Home   Weather   Naumburg (Saale)   Past weeks

Flag for Germany Past Weather in Naumburg (Saale), Saxony-Anhalt, Germany — Yesterday and Last 2 Weeks

Now
25 °F

Partly sunny.


Feels Like: 18 °F
Forecast: 14 / 24 °F
Wind: 6 mph from East

Location: Leipzig-Schkeuditz

Current Time: Jan 18, 2017 at 1:33:49 pm

Latest Report: Jan 18, 2017 at 12:50 pm


Visibility: N/A

Pressure: 30.72 "Hg

Humidity: 86%

Dew Point: 21 °F

Location of Naumburg (Saale)Location

Past Weather in Naumburg (Saale) — Graph

°F

Naumburg (Saale) Temperature Yesterday

Maximum temperature yesterday: 27 °F (at 12:20 am)
Minimum temperature yesterday: 23 °F (at 6:20 pm)
Average temperature yesterday: 25 °F

High & Low Weather Summary for the Past Weeks

 TemperatureHumidityPressure
High39 °F (Jan 4, 10:50 am)100% (Jan 4, 5:50 pm)30.74 "Hg (Jan 4, 5:50 pm)
Low12 °F (Jan 7, 12:20 am)59% (Jan 7, 2:50 pm)29.00 "Hg (Jan 13, 6:20 am)
Average30 °F87%30.07 "Hg
* Reported Jan 3 12:20 pm — Jan 18 12:20 pm, Naumburg (Saale), Weather by CustomWeather, © 2017

Note: Actual official high and low records may vary slightly from our data, if they occured in-between our weather recording intervals... More about our weather records

Advertising

Naumburg (Saale) Weather History for the Previous 24 Hours

Scroll right to see more
 ConditionsComfort  
Time TempWeatherWind HumidityBarometerVisibility
12:20 pm
Wed, Jan 18
25 °FPartly sunny.6 mph86%30.72 "HgN/A
11:50 am25 °FPartly sunny.8 mph86%30.72 "HgN/A
11:20 am25 °FPartly sunny.6 mph86%30.72 "HgN/A
10:50 am25 °FPartly sunny.6 mph86%30.74 "HgN/A
10:20 am25 °FPartly sunny.3 mph86%30.74 "HgN/A
9:50 am25 °FPartly sunny.5 mph93%30.72 "Hg5 mi
9:20 am25 °FPartly sunny.3 mph93%30.72 "Hg4 mi
8:50 am23 °FPartly sunny.3 mph100%30.72 "Hg4 mi
8:20 am23 °FLight snow. Ice fog.2 mph100%30.72 "Hg2 mi
7:50 am23 °FIce fog.2 mph100%30.72 "Hg3 mi
7:20 am23 °FLight snow. Partly cloudy.2 mph100%30.69 "Hg4 mi
6:50 am23 °FLight snow. Passing clouds.2 mph100%30.69 "Hg4 mi
6:20 am23 °FLight snow. Passing clouds.3 mph93%30.69 "Hg4 mi
5:50 am23 °FLight snow. Passing clouds.2 mph93%30.69 "Hg4 mi
5:20 am23 °FLight snow. Ice fog.2 mph93%30.69 "Hg3 mi
4:50 am23 °FLight snow. Ice fog.5 mph93%30.69 "Hg3 mi
4:20 am23 °FLight snow. Ice fog.5 mph93%30.69 "Hg3 mi
3:50 am23 °FLight snow. Ice fog.3 mph93%30.69 "Hg2 mi
3:20 am23 °FLight snow. Ice fog.3 mph100%30.69 "Hg2 mi
2:50 am23 °FIce fog.5 mph93%30.69 "Hg3 mi
2:20 am23 °FIce fog.3 mph93%30.69 "Hg3 mi
1:50 am23 °FLight snow. Ice fog.5 mph100%30.69 "Hg3 mi
1:20 am23 °FLight snow. Ice fog.5 mph100%30.69 "Hg2 mi
12:50 am23 °FLight snow. Ice fog.5 mph100%30.69 "Hg2 mi
12:20 am23 °FLight snow. Ice fog.6 mph93%30.69 "Hg1 mi
11:50 pm
Tue, Jan 17
23 °FLight snow. Ice fog.5 mph100%30.69 "Hg1 mi
11:20 pm23 °FIce fog.5 mph100%30.69 "Hg1 mi
10:50 pm23 °FIce fog.7 mph100%30.69 "Hg1 mi
10:20 pm23 °FIce fog.7 mph100%30.69 "Hg1 mi
9:50 pm23 °FIce fog.6 mph100%30.69 "Hg1 mi
9:20 pm23 °FIce fog.1 mph100%30.69 "Hg1 mi
8:50 pm23 °FIce fog.3 mph93%30.66 "Hg1 mi
8:20 pm23 °FIce fog.5 mph93%30.66 "Hg1 mi
7:50 pm23 °FIce fog.5 mph100%30.66 "Hg1 mi
7:20 pm23 °FIce fog.5 mph100%30.66 "Hg1 mi
6:50 pm23 °FIce fog.6 mph100%30.66 "Hg1 mi
6:20 pm23 °FIce fog.6 mph100%30.66 "Hg2 mi
5:50 pm25 °FIce fog.7 mph93%30.63 "Hg3 mi
5:20 pm25 °FIce fog.8 mph93%30.63 "Hg3 mi
4:50 pm25 °FPassing clouds.8 mph93%30.63 "Hg4 mi
4:20 pm25 °FBroken clouds.8 mph93%30.63 "Hg4 mi
3:50 pm25 °FBroken clouds.10 mph100%30.63 "Hg4 mi
3:20 pm25 °FBroken clouds.9 mph93%30.60 "Hg4 mi
2:50 pm25 °FBroken clouds.10 mph100%30.60 "Hg3 mi
2:20 pm25 °FBroken clouds.7 mph93%30.60 "Hg3 mi
1:50 pm25 °FBroken clouds.7 mph100%30.60 "Hg3 mi
1:20 pm25 °FBroken clouds.8 mph100%30.60 "Hg4 mi
Weather by CustomWeather, © 2017

See weather overviewHow to use our weather pages